Theta_e
332 333 333 332 330 327 327 329 331 331 330 330 330 327 326 327 327 327 327 327 327 328 328 329 329 329 328 328 328 329 329 329 329 329 328 327 326 325 327 326 326 326 325 325 324 323 322 322 321 320 319 321 320 318 318 316 316 318 320 321 322 324 326 327 326 324 326 327 327 327 326 326 326 327 326 327 327 327 327 326 325 325 324 324 322
333 333 332 332 332 329 328 329 330 332 330 329 329 328 327 328 328 328 328 328 328 326 327 328 328 327 328 328 327 328 328 327 327 327 327 325 323 324 325 323 325 326 326 326 325 325 324 324 323 322 321 322 321 320 319 318 318 319 321 322 323 323 325 326 324 324 326 328 329 329 328 327 327 326 326 326 327 326 326 325 325 325 325 324 322
333 333 332 332 333 332 331 329 329 330 331 330 330 330 330 331 330 328 327 327 327 325 326 327 327 327 327 326 326 328 327 325 325 326 326 326 325 325 326 324 324 325 327 327 327 327 326 325 325 324 323 323 322 323 322 323 323 323 323 323 322 322 323 323 323 323 325 328 329 328 328 327 327 327 326 326 326 326 325 325 325 325 324 323 321
332 333 334 333 333 332 332 331 330 331 333 332 332 332 332 333 331 327 327 327 326 326 326 327 326 326 326 326 327 328 329 328 328 327 326 327 327 327 328 327 326 326 327 328 328 328 327 326 326 326 325 324 323 324 324 324 324 325 325 324 323 323 323 324 323 322 324 326 327 326 326 326 326 327 327 326 326 326 325 325 324 324 322 321 320
332 333 333 333 333 333 333 333 333 333 333 333 334 333 333 333 330 328 328 327 327 327 327 327 327 328 328 329 330 329 330 330 329 329 327 327 327 327 328 327 327 327 326 327 328 328 327 326 326 326 326 326 326 325 326 326 325 325 324 324 324 324 323 323 323 323 323 324 325 327 327 326 326 327 327 326 326 325 325 325 324 323 322 321 320
332 332 332 333 333 333 334 333 333 333 333 332 332 331 331 331 330 329 329 328 328 327 326 326 326 327 327 329 330 330 329 328 327 327 326 326 327 327 327 327 327 327 327 327 328 328 327 327 327 328 327 327 328 327 327 326 326 325 325 324 324 324 323 323 323 323 323 321 321 324 326 326 327 328 327 326 326 325 325 324 323 322 321 320 319
331 332 332 333 333 333 333 333 333 332 331 331 330 329 329 329 328 327 326 325 324 323 322 322 323 323 323 324 326 326 325 324 324 324 324 324 325 325 325 326 326 327 327 327 327 327 327 327 327 327 327 328 328 328 328 328 327 326 325 324 324 324 324 323 323 323 323 321 321 322 323 324 326 326 326 326 325 324 323 323 322 322 321 320 317
331 331 332 333 333 334 333 333 331 329 328 328 326 326 325 325 324 322 321 320 320 319 318 318 318 318 318 318 318 318 316 315 315 315 315 316 316 317 318 318 320 321 322 323 324 325 327 328 327 327 326 326 326 327 328 329 328 327 326 324 322 322 323 323 322 323 323 323 323 323 322 322 323 324 326 326 326 324 323 323 322 322 322 320 317
331 331 332 333 333 334 333 332 329 326 325 324 323 323 322 320 320 319 318 318 317 317 316 315 316 316 315 314 313 312 313 313 313 312 311 311 311 310 310 310 311 311 313 316 317 320 323 324 324 325 326 326 326 326 326 328 328 327 326 325 323 322 322 322 322 322 322 322 323 324 323 323 324 325 326 326 326 325 324 323 323 322 321 321 319
331 331 332 332 331 331 330 329 326 323 322 321 320 321 321 318 318 317 317 316 314 314 314 314 315 315 314 313 313 314 314 314 313 313 313 314 313 312 312 311 311 310 309 311 312 314 316 318 318 320 321 323 324 325 325 326 326 326 325 325 324 322 322 322 321 322 321 321 322 323 324 325 326 327 326 326 326 325 325 323 323 322 320 320 320
330 329 329 329 328 328 327 326 324 321 320 319 319 320 320 317 316 316 315 314 313 313 314 314 314 314 314 313 313 315 315 315 315 315 316 317 317 316 316 315 315 313 310 310 311 312 313 314 314 315 316 317 321 324 326 326 325 325 325 324 324 323 322 321 321 321 321 321 321 321 323 324 326 327 326 326 326 325 325 324 323 322 320 318 319
327 327 327 327 327 326 326 325 323 321 320 319 320 320 319 317 315 315 314 313 314 314 314 314 314 314 313 313 313 313 314 316 317 317 317 318 317 317 317 317 316 315 314 313 312 312 312 313 313 314 314 316 318 322 325 325 325 325 324 324 324 323 323 321 321 321 320 321 320 320 321 323 324 326 326 325 325 324 324 324 323 323 319 316 318
326 327 328 327 327 327 326 325 323 322 321 320 320 320 319 317 316 315 315 314 314 314 314 314 314 313 313 312 313 314 314 316 317 317 317 317 316 316 316 315 315 314 314 315 315 313 313 313 312 313 314 315 316 320 323 325 325 324 323 322 323 323 323 321 320 320 320 320 320 320 321 322 323 325 325 325 325 324 324 323 323 322 318 315 317
327 327 327 327 327 327 326 326 324 323 322 320 320 320 319 318 317 316 316 315 315 315 315 314 313 312 311 311 312 314 314 315 315 315 315 315 315 315 314 314 314 312 312 315 315 315 314 312 312 313 313 314 314 317 321 322 323 324 323 322 322 322 322 321 320 319 319 320 320 320 321 321 322 324 325 325 325 324 324 323 323 322 317 314 315
326 326 327 327 327 327 326 326 324 322 320 319 320 319 319 319 319 318 318 317 317 316 315 314 313 312 312 311 311 312 313 313 313 312 312 313 313 313 312 312 312 311 311 313 314 314 314 312 312 312 312 313 314 316 319 320 321 322 322 322 323 322 322 321 319 318 319 319 319 319 320 321 322 323 324 324 324 324 324 324 322 320 317 313 313
325 326 327 327 327 327 327 326 325 322 320 319 319 319 319 320 320 319 319 318 317 316 315 313 313 312 312 311 310 310 310 310 311 311 311 312 312 312 311 310 310 311 312 314 314 314 314 313 313 313 312 312 313 315 318 319 320 320 321 322 323 322 320 319 318 318 318 318 319 319 319 320 320 322 323 324 324 324 323 323 322 320 318 316 315
325 327 328 327 327 327 326 326 324 323 322 320 320 319 319 319 318 318 317 317 316 315 313 312 311 310 310 309 308 308 308 308 308 307 309 310 310 310 310 309 310 312 313 314 314 314 314 314 314 313 312 312 312 314 317 320 320 320 321 322 322 320 318 317 317 317 314 314 317 318 318 319 319 320 322 323 324 324 324 324 323 322 320 319 318
325 326 327 327 326 326 325 324 323 322 321 319 318 317 316 315 314 314 314 313 313 312 310 309 308 307 307 306 305 304 304 304 304 303 305 307 306 307 308 307 310 313 313 313 314 314 314 314 315 314 313 312 313 312 314 317 319 320 320 322 321 319 318 317 316 315 310 311 316 318 318 318 319 320 321 322 323 323 323 323 323 322 321 320 320
325 325 326 326 325 324 323 322 320 319 318 317 316 314 313 312 312 312 312 310 309 309 308 308 307 307 307 306 306 305 304 304 303 301 303 304 305 305 306 306 309 312 312 312 314 315 314 314 314 315 314 314 313 313 314 316 318 320 320 321 320 318 318 317 316 315 313 311 315 317 317 318 318 320 321 320 319 319 320 321 321 321 320 320 320
324 324 324 324 323 322 321 319 318 317 316 315 314 314 313 312 311 311 311 311 310 308 307 308 307 307 306 306 305 304 303 302 301 300 301 302 303 304 304 305 308 311 310 312 314 314 314 314 314 314 315 315 315 316 315 316 318 320 320 321 320 319 318 316 315 317 317 315 315 316 317 317 317 319 321 319 316 316 317 319 321 320 319 320 320
323 322 322 321 321 320 318 317 316 315 314 314 314 313 313 312 312 311 310 310 310 309 308 307 305 303 301 300 300 300 299 299 299 298 299 299 299 300 302 305 307 307 308 311 313 312 313 313 313 314 313 314 317 317 316 316 319 320 319 320 320 319 318 317 315 317 317 315 316 317 317 317 317 318 320 318 316 317 316 317 320 320 319 319 320
322 321 321 320 319 318 317 316 315 314 314 313 313 312 312 311 311 310 309 309 308 308 307 304 301 299 298 298 298 298 298 298 298 297 297 297 297 299 302 304 305 306 307 309 311 311 312 313 313 312 310 312 315 315 315 316 317 318 319 319 319 319 318 318 317 317 314 311 313 317 317 317 318 318 318 318 317 318 318 318 319 320 319 319 319
320 320 319 318 317 316 315 315 314 314 313 313 312 311 311 310 309 309 307 306 305 305 303 301 299 298 298 298 297 297 297 297 297 297 297 297 298 300 303 304 305 305 305 307 308 309 309 311 313 312 310 310 311 312 314 315 314 315 318 318 319 319 318 317 317 316 311 308 311 316 317 316 316 317 317 318 318 318 319 320 320 319 319 319 319
319 318 318 317 316 315 314 314 313 313 312 312 311 311 310 308 308 307 305 303 303 302 301 300 298 298 297 297 297 297 297 297 297 297 297 297 297 300 302 304 305 305 305 305 307 308 307 309 312 312 310 310 309 309 312 314 313 313 315 317 318 318 317 317 316 314 312 311 313 315 316 315 315 316 317 317 317 317 318 319 320 320 319 319 319
319 318 317 316 315 314 313 313 312 311 311 311 310 310 309 308 306 304 302 301 301 301 300 299 297 297 297 297 297 298 298 298 298 297 297 297 297 298 300 303 304 305 305 305 306 307 307 308 310 311 312 312 309 307 309 313 312 311 313 316 318 317 317 317 316 313 312 313 313 313 315 315 315 316 316 317 317 317 317 318 320 321 319 319 319
318 317 316 315 314 313 313 312 311 311 310 310 309 308 307 307 305 303 302 302 300 300 299 298 297 297 297 298 298 298 298 298 298 298 297 297 297 297 298 300 302 304 305 305 306 307 307 308 309 310 311 311 309 306 307 310 312 311 312 314 316 316 315 316 315 312 311 311 309 308 311 314 315 315 315 316 316 316 316 317 319 321 320 319 318
318 317 316 314 313 312 312 311 310 310 309 308 308 307 306 305 305 304 303 302 299 298 298 297 297 297 297 298 298 298 298 298 298 298 298 297 297 297 296 298 300 302 304 305 306 306 306 307 308 308 310 309 307 307 307 308 311 312 310 311 314 315 314 315 313 311 311 311 307 304 306 311 314 315 314 315 315 315 315 315 318 321 321 319 319
317 316 315 314 313 312 311 310 309 309 308 307 307 306 305 305 305 304 303 302 299 298 298 297 297 298 298 298 298 298 298 298 298 298 297 297 297 297 296 297 298 298 300 303 305 306 306 306 306 307 308 307 306 307 307 306 308 311 311 310 311 313 314 313 311 310 312 311 307 305 306 309 313 315 314 314 315 315 315 315 316 319 320 320 320
316 315 314 313 312 310 309 308 308 307 307 307 306 306 305 305 305 304 302 301 299 298 297 298 297 297 298 298 298 298 298 297 297 297 297 297 297 297 297 296 296 296 297 299 302 304 305 306 306 307 307 307 307 306 306 306 307 310 311 310 310 311 312 310 309 310 311 309 307 308 309 311 313 313 313 314 313 313 313 315 316 317 318 320 320
315 314 313 312 311 309 308 307 307 307 307 307 306 306 305 304 304 302 301 300 298 297 297 298 298 298 298 298 298 297 297 297 297 297 297 297 297 297 297 296 296 296 296 296 299 303 304 305 305 306 307 307 306 305 305 305 305 309 311 310 310 311 311 311 310 311 312 310 307 308 310 311 313 313 313 313 310 308 308 311 315 316 317 318 320
314 313 312 311 310 309 308 308 307 307 307 307 306 306 304 303 302 300 299 298 297 297 297 297 298 298 297 297 297 297 297 296 296 296 296 296 296 296 297 296 296 296 296 296 299 302 303 304 305 305 306 307 306 304 304 304 304 308 310 310 310 310 311 311 310 311 312 311 308 309 310 310 311 312 312 310 307 304 303 305 310 314 316 317 318
314 313 311 310 309 308 308 307 307 307 306 305 305 304 302 300 299 298 297 297 297 297 297 297 297 297 297 297 297 296 296 296 296 296 296 296 297 296 296 296 296 297 296 297 299 301 303 304 305 304 305 306 305 304 304 303 303 307 310 310 310 310 310 310 310 311 312 310 308 308 309 309 310 310 310 308 305 302 302 303 305 309 313 315 317
313 312 310 309 309 308 307 307 306 306 305 304 303 301 300 299 298 298 297 297 297 297 297 297 297 297 296 296 296 297 297 297 297 296 296 296 296 296 296 296 296 297 297 297 298 301 303 304 305 305 306 306 305 304 304 303 303 307 310 310 310 310 309 310 310 310 311 309 307 308 310 310 309 309 308 307 304 302 301 301 301 303 308 311 314
312 310 309 308 307 307 306 306 306 304 304 303 301 299 299 299 298 298 297 297 297 297 297 297 296 296 296 297 297 297 297 297 297 297 297 297 296 296 297 297 297 297 298 298 299 300 303 304 305 306 306 306 305 305 304 303 304 308 310 310 310 310 309 310 310 310 311 310 308 309 311 311 310 309 307 304 302 303 304 304 304 304 306 308 311
311 309 308 307 306 306 305 304 304 303 302 302 300 299 299 300 298 298 298 297 297 297 296 296 296 296 297 297 297 298 298 298 298 298 298 298 298 299 299 299 299 299 300 301 301 301 303 304 304 305 305 305 306 306 306 306 306 309 310 310 310 310 309 309 310 311 311 310 308 308 310 311 310 309 307 303 301 304 308 309 309 310 309 310 312
310 308 307 306 305 303 302 301 301 301 301 300 299 299 299 299 298 298 297 297 297 296 296 296 296 297 297 297 298 298 298 299 299 299 299 299 300 300 300 300 300 301 301 302 302 303 303 304 304 304 304 305 306 307 308 308 308 310 311 310 309 310 310 309 309 310 311 310 308 308 308 310 310 309 307 303 300 303 308 310 311 312 311 312 314
309 306 305 303 302 301 300 299 298 299 298 298 298 299 299 298 298 298 297 296 296 296 296 296 296 297 297 298 298 298 299 299 299 299 300 300 300 300 300 300 300 300 301 301 302 302 303 303 304 304 304 304 305 306 308 309 309 311 312 310 309 309 310 310 309 310 311 310 309 309 308 309 310 308 307 305 300 301 306 309 311 312 312 312 313
307 306 304 302 301 301 300 298 297 297 297 297 298 298 298 298 297 296 296 296 296 296 296 296 296 297 298 298 299 299 299 299 299 299 300 300 299 299 299 299 299 300 300 301 301 302 303 303 304 304 304 304 304 305 307 309 309 311 312 312 310 309 309 310 310 309 310 310 310 309 308 309 310 308 307 307 303 301 304 307 308 311 312 312 313
307 306 304 302 301 301 299 298 297 297 297 297 297 297 297 297 296 296 296 296 296 296 296 296 296 297 298 298 298 299 299 299 299 299 299 299 299 299 299 298 299 299 300 300 300 301 302 302 303 304 303 303 303 303 305 308 309 310 312 313 312 310 309 309 310 310 310 310 310 310 309 308 309 308 307 307 305 303 304 305 305 307 311 312 311
307 305 304 302 302 301 299 297 297 297 297 297 297 297 297 296 296 296 296 296 296 296 296 296 296 297 297 298 299 299 299 299 299 299 299 299 298 298 298 298 298 299 299 299 300 300 301 302 303 303 303 303 303 303 304 307 309 309 311 312 312 311 309 309 310 310 310 310 310 311 310 308 308 307 307 307 305 302 302 304 305 306 308 309 309
306 305 303 302 302 300 298 297 297 297 297 297 297 297 296 296 295 295 295 295 295 295 295 295 296 297 297 298 299 299 299 299 299 299 299 298 298 298 298 298 298 298 299 299 299 300 300 301 302 302 302 302 302 302 303 305 307 308 309 310 312 312 309 308 309 310 310 311 311 311 311 309 307 307 306 307 306 301 299 303 304 302 301 301 302
306 305 303 302 300 298 297 298 297 297 297 297 297 296 296 296 295 295 295 295 295 295 295 295 296 297 297 298 298 298 299 299 299 299 299 298 298 298 298 297 298 298 298 299 299 299 299 300 300 300 301 301 301 302 302 303 304 306 308 309 311 312 309 308 309 309 309 311 311 312 311 309 307 307 307 307 305 300 297 298 297 296 296 296 297
306 304 302 301 299 298 297 297 297 297 297 297 296 296 296 295 295 295 295 295 295 295 295 295 296 296 298 299 299 298 298 299 299 299 298 298 298 298 298 297 297 298 298 298 299 299 299 300 300 300 300 300 301 302 302 302 303 305 307 309 310 311 310 308 308 308 309 310 311 312 311 308 307 306 306 307 305 300 297 295 295 295 295 295 298
305 303 301 300 299 298 297 297 297 297 297 296 296 296 295 295 295 294 294 295 295 294 295 296 297 297 298 299 299 299 298 298 299 299 299 299 298 298 298 297 297 297 297 298 299 299 300 300 300 300 300 300 301 301 302 302 302 303 305 307 309 310 310 309 308 308 308 309 310 310 309 307 306 306 307 306 304 300 297 295 294 295 296 297 300
305 303 301 299 298 298 297 297 297 297 296 296 296 295 295 295 295 294 295 294 294 294 295 296 297 298 298 298 298 299 298 298 298 299 299 298 298 298 297 297 297 297 297 297 298 299 300 300 300 300 300 300 301 302 302 302 302 302 304 306 308 309 309 309 309 308 308 309 309 308 307 306 306 306 307 305 302 300 298 295 294 296 299 301 303
303 302 300 299 298 298 298 297 297 297 296 296 295 295 295 295 295 294 294 294 294 294 295 296 297 298 298 298 298 298 298 298 298 298 298 298 298 298 297 296 297 297 298 297 298 299 300 299 300 300 300 300 300 301 302 302 302 302 302 304 306 308 308 309 310 309 308 308 308 307 306 306 306 305 305 304 302 300 298 294 294 298 303 304 303
303 302 300 299 299 299 298 297 297 297 296 296 295 295 295 295 294 294 294 295 294 294 295 295 297 298 298 298 298 298 298 298 298 298 298 297 297 297 297 296 296 297 298 298 298 299 300 300 300 300 300 300 300 300 301 301 301 302 302 303 305 307 309 309 310 309 308 307 307 306 306 306 305 304 303 302 302 302 300 297 297 301 304 304 302
302 301 300 300 301 300 299 297 297 297 296 295 295 295 295 295 294 294 294 294 294 294 294 295 296 297 297 298 298 298 298 298 298 298 298 297 297 297 296 296 296 297 298 298 298 299 300 300 300 301 301 301 301 300 301 301 301 301 302 302 304 306 308 308 308 308 308 307 307 306 306 305 304 304 304 304 304 305 304 302 301 303 303 300 299
302 301 301 301 301 300 298 297 297 297 296 295 295 295 295 294 294 294 294 294 294 294 294 294 295 296 296 297 298 298 298 298 298 298 298 297 296 296 295 296 296 297 297 298 298 299 299 300 300 301 301 301 301 301 301 300 300 301 301 302 303 304 306 307 307 307 307 307 307 306 306 306 305 304 304 304 305 306 306 304 302 302 303 302 302
302 301 301 300 299 298 298 297 297 296 296 295 295 295 295 294 294 294 294 294 294 294 294 294 294 295 295 296 297 297 297 298 298 298 298 297 297 296 295 295 296 297 298 298 298 298 299 300 300 301 300 300 301 301 301 301 301 301 301 301 302 303 304 305 306 307 307 307 306 306 306 306 307 306 304 304 303 304 305 305 302 301 302 304 304
301 301 300 299 298 298 298 297 297 296 296 295 295 294 294 294 294 294 294 294 294 294 293 294 294 294 294 295 296 296 297 297 297 297 297 297 297 297 296 296 296 297 297 298 298 298 299 300 300 300 301 301 301 301 301 301 302 302 302 302 302 302 303 305 306 307 307 307 306 305 305 306 306 307 306 306 304 303 304 304 304 303 303 303 303
Wind_Speed
8 7 6 5 5 6 6 6 6 6 7 7 7 8 9 9 9 10 11 11 12 12 12 12 12 12 13 13 13 13 12 12 12 12 12 12 14 15 15 16 16 15 15 14 13 12 11 11 11 12 11 10 11 11 10 10 10 10 9 7 5 7 7 7 7 5 6 6 6 6 4 4 4 4 4 3 5 7 6 6 7 5 4 4 4
8 8 7 6 5 5 6 6 6 6 7 8 7 8 9 10 10 10 11 11 12 12 13 13 13 14 13 14 14 13 13 13 14 13 14 15 16 16 16 17 17 16 16 15 15 14 14 13 12 12 12 11 12 12 12 11 9 8 8 7 5 7 8 8 8 7 8 6 6 6 4 4 3 3 3 4 7 6 6 8 6 5 4 4 4
9 9 8 7 7 6 6 7 7 7 8 8 8 9 9 10 10 10 10 11 12 13 14 14 14 15 15 15 16 15 15 16 16 15 15 17 17 16 16 16 16 16 16 16 16 15 15 15 15 14 13 13 12 12 12 11 10 8 7 7 6 6 7 8 9 9 9 8 8 8 7 7 5 5 4 5 5 4 6 8 5 4 5 4 5
9 9 8 8 8 7 7 7 8 8 8 9 9 9 10 10 11 11 11 12 14 15 15 15 16 16 17 17 17 17 17 17 18 18 17 17 18 17 17 17 17 16 16 17 17 17 17 16 16 15 14 14 14 13 12 10 10 9 8 7 6 6 6 7 9 10 10 10 9 9 8 8 7 8 8 5 5 5 7 7 5 4 5 5 5
9 9 8 8 8 8 8 9 9 8 9 9 10 10 10 11 12 13 13 14 15 16 16 16 16 16 17 17 16 17 17 17 18 20 20 20 20 19 19 19 18 18 18 18 18 18 18 19 19 18 17 16 15 14 12 11 11 10 10 9 7 7 7 7 8 10 12 12 11 10 8 8 7 7 10 7 6 8 8 7 5 5 5 5 5
9 9 8 8 8 8 9 9 9 8 9 10 11 12 12 12 13 13 14 15 15 16 16 16 16 16 17 17 17 18 18 19 20 21 22 22 22 22 21 21 20 20 20 20 21 20 19 19 20 20 19 18 16 15 14 13 12 11 11 10 9 8 8 8 8 8 11 14 14 13 11 9 6 5 8 7 7 11 11 8 6 5 4 4 5
10 9 9 8 9 9 10 10 10 10 11 11 12 13 13 13 14 14 14 15 16 17 17 17 17 18 19 20 19 20 20 21 22 22 22 23 23 24 24 23 23 22 21 21 23 22 20 20 20 21 20 19 17 17 17 16 14 12 12 12 11 10 9 9 9 8 10 12 13 15 14 13 10 8 9 7 8 12 12 9 7 6 5 6 7
11 11 10 10 10 11 11 11 12 12 13 14 14 14 14 15 15 15 16 17 18 19 20 21 21 22 23 23 23 23 24 24 25 25 25 25 26 26 26 26 26 25 24 24 25 23 21 23 23 22 22 22 20 19 17 17 17 15 14 14 13 12 10 9 10 9 9 10 11 13 14 14 14 12 11 10 10 12 13 11 9 8 8 9 8
13 12 12 12 12 13 13 13 14 15 16 16 16 16 16 17 17 18 19 20 20 21 22 23 23 23 24 26 26 26 26 25 26 27 28 29 30 30 31 31 30 29 27 26 27 25 23 26 27 26 25 24 24 23 19 18 21 21 17 15 14 13 11 10 11 10 8 10 11 12 13 12 12 12 12 12 11 9 11 12 13 12 10 10 8
13 13 13 13 14 14 15 16 17 18 18 18 18 18 18 18 18 19 20 21 21 21 22 23 23 25 26 28 28 27 26 26 27 28 29 29 31 32 32 32 32 32 31 28 28 27 25 26 27 27 26 25 26 26 23 21 26 26 20 16 16 15 13 11 11 11 9 10 11 12 12 11 10 10 10 10 10 8 8 10 14 15 13 11 9
14 14 15 15 16 16 17 18 18 19 19 19 19 19 18 18 18 19 20 20 21 21 22 24 25 26 27 28 28 26 26 26 27 27 27 26 27 28 28 29 29 31 31 30 29 28 26 25 26 26 26 26 25 25 24 24 25 25 21 18 17 15 15 13 12 12 11 11 12 13 13 11 10 10 10 9 9 10 10 12 13 13 12 10 10
14 15 15 15 16 16 17 18 18 18 19 19 19 18 18 18 18 19 19 20 21 22 23 24 25 26 26 26 26 26 25 24 22 23 24 23 24 25 25 25 26 28 29 28 28 28 27 26 26 25 25 26 25 23 23 24 24 23 22 20 18 16 15 14 13 12 11 11 11 12 13 12 10 10 9 9 11 12 12 11 11 12 10 8 9
14 14 14 14 14 15 15 16 17 17 18 18 18 17 17 17 17 18 18 19 20 21 22 23 24 24 24 24 24 23 23 22 21 21 22 22 23 23 25 25 26 28 27 26 26 27 26 26 26 26 25 25 25 22 21 23 23 24 24 23 22 19 15 14 14 12 11 12 11 11 13 12 11 10 9 10 11 12 10 7 9 10 10 8 8
13 13 13 13 13 13 14 15 15 16 16 16 16 16 17 17 17 16 17 18 19 20 21 22 22 22 22 22 22 21 21 20 20 21 21 22 22 22 24 25 26 28 27 24 25 26 26 26 25 25 25 25 25 22 19 19 20 23 25 25 25 22 17 14 14 12 12 12 11 11 12 12 11 9 9 10 10 10 9 8 10 10 9 9 9
11 12 12 12 12 12 13 13 14 14 14 14 15 15 16 17 16 16 17 17 18 19 19 20 20 21 21 22 22 22 22 21 21 23 23 23 23 23 24 25 25 27 24 22 24 25 26 26 25 25 25 26 26 23 20 18 17 19 22 24 25 23 18 14 13 12 11 11 12 12 12 12 11 9 9 10 10 10 9 9 12 12 11 11 10
10 11 11 10 10 11 11 12 12 13 13 13 13 14 15 15 15 15 16 16 17 18 19 20 21 23 24 25 26 25 24 25 24 25 25 24 23 24 25 25 25 24 22 21 23 24 25 26 27 26 25 25 27 25 23 21 19 17 17 18 22 22 17 13 12 12 12 12 11 12 11 11 11 10 9 9 9 10 9 9 12 13 12 12 11
9 10 9 9 9 10 11 11 11 12 12 12 12 13 13 14 14 15 16 16 17 19 21 23 24 26 27 27 28 27 27 28 28 28 28 25 24 24 24 24 24 22 21 21 22 22 24 26 27 28 27 25 26 25 23 22 21 18 14 14 18 19 16 15 15 15 15 13 10 11 12 11 12 11 9 8 9 9 10 11 13 13 11 10 11
9 9 9 9 9 10 11 11 11 11 12 12 13 13 14 15 16 16 18 19 19 21 23 25 26 28 29 30 31 31 30 30 31 31 29 27 25 24 24 24 22 21 21 22 22 22 24 26 27 28 28 26 26 27 25 23 22 20 15 13 15 16 16 17 17 16 14 12 11 12 12 12 12 11 9 9 9 9 10 11 12 12 10 9 9
9 9 8 9 9 10 11 11 11 12 12 13 13 14 15 16 18 18 19 21 23 24 25 26 28 29 29 31 31 31 31 30 30 31 29 27 26 25 24 24 22 22 22 22 23 23 24 27 27 27 28 27 27 28 28 25 23 21 16 14 15 17 17 17 18 16 11 10 12 13 11 11 12 11 9 10 11 10 10 10 10 10 9 9 9
10 10 10 10 10 10 10 10 11 12 12 13 13 14 15 16 18 19 19 20 23 26 27 26 27 28 28 29 29 29 28 28 28 28 27 26 26 25 24 24 23 23 23 23 23 24 25 27 28 28 28 29 28 27 27 25 22 20 17 15 14 17 19 17 17 17 13 10 12 13 12 12 12 11 10 11 11 11 11 10 9 9 9 9 9
11 11 10 10 10 10 10 10 11 11 12 12 13 14 14 15 17 19 20 19 20 23 24 25 27 29 29 29 28 27 27 27 27 27 26 25 25 24 23 23 23 23 23 24 23 24 26 27 27 28 29 28 27 27 28 26 23 21 18 17 15 16 20 18 18 20 15 11 12 12 12 12 11 11 10 11 11 10 11 10 9 9 9 10 10
12 11 10 10 10 9 9 10 10 11 12 12 12 14 15 16 16 19 21 20 20 21 23 26 28 28 28 28 27 27 27 27 27 26 26 26 25 24 23 23 24 24 24 24 24 24 26 27 27 28 30 29 27 28 29 26 24 23 21 20 17 14 19 19 19 19 12 7 11 12 11 11 10 10 10 10 9 8 9 9 9 9 9 10 11
12 12 11 10 9 9 9 10 10 11 12 12 13 14 16 18 17 18 21 22 21 22 24 26 27 27 27 27 26 26 27 27 28 28 27 26 25 23 23 23 24 24 25 25 25 26 27 27 26 28 31 31 31 33 32 27 26 26 22 21 19 15 17 20 18 14 8 6 10 11 10 10 10 10 10 9 8 8 8 8 8 9 10 10 11
12 11 11 10 9 9 9 10 11 11 12 13 14 14 16 19 19 19 22 23 23 24 25 26 27 27 27 27 27 27 28 29 29 29 28 27 25 23 23 23 23 24 25 25 26 27 28 27 26 27 29 30 33 37 35 31 31 31 25 21 20 17 15 20 17 12 11 8 8 9 10 10 9 9 9 8 7 7 7 7 6 7 9 10 10
12 11 11 10 9 9 10 10 11 11 12 13 14 14 16 18 20 21 22 23 23 24 25 26 27 27 27 27 28 29 29 30 30 30 29 28 25 23 23 22 22 23 24 25 26 27 27 27 26 26 27 29 33 37 36 34 33 35 32 22 18 18 14 16 18 14 11 7 7 10 10 9 9 8 8 7 6 6 7 6 6 6 8 9 10
11 11 10 10 9 10 10 11 11 12 13 13 14 15 15 17 19 21 21 22 24 25 25 26 26 26 26 27 29 29 30 30 31 30 30 28 26 25 23 21 22 23 23 24 25 26 27 27 26 26 26 26 31 36 37 35 34 36 36 27 19 16 9 11 18 14 8 5 5 8 10 10 10 9 8 6 6 6 7 7 6 6 7 8 9
11 11 10 9 9 10 10 11 12 12 13 13 14 15 16 17 18 19 20 23 26 26 24 25 25 26 27 28 29 29 30 30 31 30 30 29 28 26 24 22 21 21 22 23 24 25 27 26 25 25 25 26 30 34 37 36 35 34 35 34 25 10 4 12 17 15 10 7 4 5 9 11 10 9 8 7 7 7 7 9 8 7 7 7 8
11 11 10 9 9 10 11 12 12 13 13 14 14 14 15 16 17 18 19 22 25 25 24 24 25 26 27 29 29 29 30 30 30 30 29 29 28 27 26 23 22 21 21 22 23 24 25 26 25 25 25 27 30 33 36 38 36 32 31 34 27 7 7 12 16 15 9 7 4 2 7 9 10 10 9 7 7 6 6 8 9 8 8 8 8
11 11 10 9 9 9 11 12 13 13 13 13 13 13 15 15 15 17 20 21 22 24 24 24 25 26 28 29 29 30 30 29 29 29 28 28 27 26 26 24 22 21 20 20 20 22 24 25 26 26 25 25 28 32 35 37 36 32 27 29 26 10 5 11 14 12 6 5 4 1 3 6 9 10 11 10 9 8 8 8 8 9 9 9 10
12 11 9 9 9 9 10 11 12 12 11 11 12 13 14 15 16 18 20 21 22 23 24 24 26 27 28 29 29 29 29 29 29 29 28 28 27 26 26 24 23 21 20 20 20 21 23 24 25 26 25 24 27 30 32 34 34 31 24 24 24 14 7 9 6 7 7 5 5 3 3 6 7 8 10 11 10 10 11 10 9 10 10 10 11
11 10 9 8 8 8 9 9 10 10 10 10 11 12 14 16 18 20 21 22 22 23 24 25 27 28 28 29 29 28 29 28 28 28 28 27 27 26 25 24 23 22 21 20 21 21 23 23 23 24 23 23 26 29 30 32 33 29 23 21 22 17 7 6 4 2 5 5 5 5 4 5 7 8 9 10 9 8 11 13 12 11 11 11 11
11 10 8 8 7 7 7 8 8 8 9 11 11 13 16 18 20 21 22 22 23 23 24 26 27 28 28 28 28 28 28 28 28 28 27 27 26 26 25 24 23 22 21 20 21 22 22 21 21 22 22 22 24 27 29 30 31 28 21 18 19 17 9 1 4 2 5 2 5 5 4 4 5 6 5 6 6 7 9 12 13 13 13 11 11
11 9 8 7 7 6 7 7 7 8 9 11 13 15 17 19 20 21 22 23 23 23 25 26 27 27 27 27 27 27 27 27 27 27 26 26 25 24 24 23 22 21 20 20 21 22 21 21 21 21 21 21 23 26 27 27 29 26 19 16 17 15 12 4 5 4 6 1 5 4 4 4 3 3 2 3 4 5 7 9 12 14 15 14 12
11 10 8 6 6 6 6 7 7 9 10 12 14 17 17 17 19 21 22 22 22 23 24 25 25 26 26 26 27 27 27 27 27 27 26 25 25 24 23 22 21 21 20 19 20 21 20 21 21 20 19 19 22 27 27 26 27 25 17 14 16 13 12 9 2 7 5 1 4 4 4 4 2 1 0 1 1 3 5 7 9 10 12 14 14
11 9 7 7 6 6 7 7 8 10 11 12 14 16 16 16 18 20 21 21 21 22 23 24 24 25 26 26 27 27 27 27 27 27 26 26 25 25 23 21 21 22 21 19 20 21 21 21 21 19 18 19 22 27 28 26 27 24 16 12 15 14 12 11 5 2 4 5 4 4 5 4 2 1 1 3 1 4 5 6 8 8 10 12 14
11 9 8 7 6 6 7 9 9 10 11 12 14 14 15 16 18 19 19 20 20 21 22 23 24 25 25 26 27 27 26 27 27 26 25 24 23 23 21 20 20 22 22 21 21 21 21 20 19 18 18 19 22 27 28 27 26 24 18 13 13 15 14 11 9 6 2 7 5 3 4 4 2 2 1 4 3 5 5 5 7 8 10 11 12
10 8 7 7 7 9 9 10 10 10 11 12 13 14 15 17 17 17 18 19 20 20 21 22 23 24 25 26 26 26 26 26 26 24 22 21 19 20 20 19 20 21 21 22 20 19 18 18 17 18 19 20 23 28 29 28 27 24 20 15 14 15 16 12 8 8 4 3 5 4 5 4 3 2 0 4 4 5 5 5 6 7 8 9 10
9 8 8 8 9 10 9 9 10 10 11 13 14 14 15 16 17 17 17 18 19 20 21 22 22 23 24 25 25 25 25 24 23 21 19 18 18 18 19 19 20 20 21 21 20 18 17 17 17 18 19 20 23 28 30 29 28 26 21 17 14 15 17 14 9 6 5 1 3 4 4 4 4 4 1 2 4 5 4 4 6 7 7 7 9
9 8 7 8 9 9 8 8 8 10 11 12 14 15 15 15 16 16 17 18 18 19 20 21 22 22 23 24 24 23 21 20 20 18 17 17 17 17 18 19 20 20 21 20 20 19 18 17 16 16 19 20 22 27 30 29 29 28 25 21 15 13 15 16 12 7 5 4 1 4 4 4 5 5 3 1 3 4 3 3 5 6 6 6 9
10 8 7 8 9 8 7 7 7 9 11 12 14 15 15 15 15 15 16 17 18 19 20 21 22 21 22 23 22 20 18 18 17 17 17 17 16 16 18 19 19 20 20 20 19 19 18 17 16 16 18 19 22 27 29 29 29 29 28 25 18 13 15 17 15 11 7 5 3 3 4 5 6 6 4 2 2 3 4 4 4 6 7 8 10
9 7 7 8 7 5 5 6 7 9 10 12 13 14 13 14 14 15 16 17 17 18 20 21 22 21 22 22 20 18 18 16 15 15 16 16 16 16 17 18 19 19 20 21 20 19 19 18 17 18 20 19 22 27 29 28 29 29 29 27 20 13 15 18 16 13 11 6 3 5 6 7 7 6 5 2 1 3 4 4 5 7 9 8 9
8 6 7 6 5 4 4 5 7 8 10 12 12 12 12 13 14 15 16 16 17 19 20 22 22 21 20 19 18 19 18 15 14 15 16 16 16 16 16 19 20 20 21 21 22 24 26 23 21 23 24 23 24 28 29 27 28 30 30 29 22 14 14 18 17 15 15 10 3 6 8 9 9 7 5 3 1 2 3 3 3 4 5 6 7
8 6 6 5 4 3 3 5 7 8 10 11 11 11 11 12 14 15 15 16 17 19 21 21 21 21 18 15 15 16 15 13 14 16 17 17 16 16 17 22 23 21 20 20 23 28 31 29 26 26 26 25 26 29 29 27 27 30 31 30 25 17 13 16 19 18 17 13 5 5 8 9 9 8 7 4 1 1 2 2 2 3 4 6 8
8 7 6 5 3 3 4 5 6 8 10 10 10 10 11 12 13 14 15 16 17 19 21 21 19 18 16 13 12 14 14 13 15 16 17 17 16 16 19 24 25 23 20 20 24 30 32 32 32 31 29 29 29 29 28 26 26 29 32 31 29 22 15 14 18 19 18 14 6 3 8 8 7 7 7 5 1 1 2 3 3 5 6 8 8
8 7 6 4 2 3 4 5 6 8 9 9 9 9 11 12 13 14 14 16 17 19 21 21 17 14 13 13 12 12 13 14 14 15 16 17 17 16 18 22 26 26 23 21 24 29 32 32 34 34 33 33 32 30 29 28 26 28 31 31 30 27 19 14 16 18 18 15 8 5 7 7 7 7 6 4 1 1 3 3 4 8 9 7 6
9 7 6 4 3 4 4 5 7 8 8 8 8 9 11 12 12 13 14 15 17 19 20 20 18 14 11 12 12 11 12 13 13 14 15 16 16 16 17 21 26 28 26 24 25 28 30 31 32 34 34 35 35 34 32 31 29 29 31 30 30 28 21 14 14 16 17 15 10 7 9 9 8 7 6 4 2 3 5 4 5 9 8 5 4
9 7 5 4 5 5 5 5 6 7 7 7 8 9 10 11 11 12 14 15 17 18 18 19 19 17 14 12 11 12 12 12 13 13 14 15 15 15 15 19 26 28 28 27 28 29 29 30 31 33 34 36 37 36 35 34 33 32 31 31 30 29 24 18 17 16 15 14 12 9 8 8 8 7 6 3 3 5 7 6 6 6 5 3 4
10 7 6 7 7 6 5 5 6 6 6 7 8 8 9 10 11 12 13 15 16 17 17 18 18 18 17 15 13 12 12 12 13 13 13 14 15 15 14 16 22 27 28 28 29 29 29 30 30 31 33 35 36 37 36 34 31 30 30 30 29 28 26 24 22 17 11 9 10 9 8 7 7 8 6 4 3 5 6 5 4 3 2 3 5
10 8 8 9 9 7 5 5 5 5 6 7 8 8 9 10 10 11 13 14 15 16 17 18 17 17 18 18 16 14 12 12 13 13 12 13 16 16 15 15 19 23 26 27 28 28 28 28 28 29 30 33 34 35 34 30 26 24 25 26 26 25 26 26 22 17 12 6 4 7 9 8 6 6 7 6 5 4 4 4 3 3 2 4 5
11 10 9 9 8 7 5 4 4 5 6 7 7 7 9 9 10 11 12 14 15 16 16 17 17 16 17 18 17 16 15 14 13 13 12 14 17 18 18 18 18 21 23 25 27 27 26 25 25 26 27 29 29 29 29 28 26 23 22 22 22 21 22 23 20 16 13 8 4 5 9 11 8 5 5 6 6 6 5 4 4 3 2 2 3
12 10 10 9 8 7 5 4 4 5 6 6 6 6 8 9 9 11 12 13 14 15 15 15 16 16 17 18 18 17 17 17 16 16 15 14 15 16 18 20 20 20 21 23 25 25 24 23 23 23 24 24 23 23 25 26 26 25 22 21 21 19 20 21 20 15 12 10 8 6 6 9 9 8 6 5 6 7 6 5 4 3 2 1 2
Wind_Direction
88 88 86 85 84 85 84 73 61 52 46 43 34 29 26 21 17 11 6 6 6 5 3 4 2 358 358 358 356 353 349 347 344 337 332 329 329 333 331 331 333 330 330 330 328 331 332 335 336 337 338 335 332 332 332 335 339 340 337 334 304 286 279 270 269 265 262 267 270 273 275 272 265 256 256 228 167 159 154 147 143 128 107 103 99
81 81 82 82 79 76 74 66 59 52 43 38 32 27 23 19 14 10 7 4 2 2 2 2 358 357 356 351 351 347 341 339 335 331 329 328 327 326 323 323 323 322 320 317 319 321 320 322 323 325 326 325 328 326 322 326 331 328 324 324 306 285 272 262 260 258 258 256 252 249 231 220 223 223 226 192 171 164 156 154 146 130 121 114 99
70 70 72 75 78 76 69 60 55 52 43 36 31 27 24 18 12 8 5 0 358 357 358 357 355 354 352 349 348 344 340 339 337 333 329 324 323 322 319 317 316 315 311 306 305 305 307 311 310 313 316 315 316 317 315 310 304 304 307 310 306 291 274 264 259 254 255 256 251 242 223 211 198 183 186 183 186 192 170 158 145 147 145 121 103
63 64 64 66 70 69 64 57 53 50 42 37 32 28 24 15 10 9 2 357 356 357 358 357 356 355 352 352 351 347 345 344 342 337 331 327 325 324 320 316 315 313 307 302 297 293 295 298 299 299 302 305 306 306 307 300 291 287 282 285 295 292 277 266 264 255 252 254 254 251 239 233 226 194 177 174 189 183 166 161 161 162 141 118 112
58 60 60 61 62 59 57 53 50 46 39 35 29 23 20 12 11 11 5 2 1 1 1 359 359 358 357 357 355 352 351 348 344 341 341 341 338 335 331 326 323 315 308 302 296 291 289 292 293 292 291 292 294 296 296 289 284 281 273 270 274 278 275 269 268 260 253 250 250 255 250 248 249 193 168 169 182 178 168 165 171 169 144 126 115
58 58 58 59 58 54 53 51 47 41 34 30 27 24 23 19 17 15 11 9 7 6 5 5 7 7 6 7 4 2 1 358 355 351 351 350 348 347 346 342 337 327 318 309 302 297 293 291 288 288 288 284 283 286 287 286 284 281 272 267 265 266 271 272 271 266 258 250 245 251 250 249 256 204 186 184 174 182 181 171 172 170 151 138 125
64 61 58 57 57 55 53 50 46 42 39 37 37 35 31 28 25 22 21 20 19 19 19 21 25 25 23 24 21 17 14 12 9 6 2 0 358 358 357 355 351 346 339 329 322 314 306 300 290 284 281 277 277 279 280 282 281 277 268 262 260 257 259 268 272 270 265 256 247 249 250 248 246 232 222 206 179 188 190 181 187 185 166 155 134
66 63 61 60 59 59 57 54 53 52 52 51 47 45 41 39 38 37 38 37 35 34 35 37 38 37 34 33 31 27 23 21 18 16 14 13 10 8 7 6 3 0 356 350 347 341 328 321 315 305 291 278 273 272 272 276 273 267 264 264 263 255 250 260 269 267 265 261 252 248 248 249 246 240 236 229 208 193 190 193 198 190 184 181 157
69 68 66 65 63 63 62 60 62 61 60 58 56 54 51 50 49 47 47 45 42 41 41 42 41 39 35 32 31 28 25 23 20 18 16 14 12 10 9 8 6 4 2 359 359 357 346 337 335 330 318 302 290 281 270 268 271 268 262 263 265 261 251 250 260 262 260 260 256 250 247 248 249 244 239 239 229 202 193 199 196 187 190 198 188
74 73 72 71 69 69 70 68 68 66 64 62 61 60 56 51 48 47 47 46 44 42 40 38 35 32 30 28 27 26 23 20 17 15 13 12 10 8 6 5 3 2 360 358 358 357 353 348 346 343 337 328 317 302 283 270 275 278 268 257 259 262 257 249 252 257 257 257 254 251 249 245 241 240 236 233 231 221 209 204 202 194 188 197 204
78 77 77 76 74 74 73 71 68 65 63 60 59 59 56 51 46 45 46 43 40 36 31 29 27 26 25 23 21 20 19 16 15 14 12 10 8 6 5 3 2 0 358 355 354 353 351 350 349 346 344 342 335 320 297 277 273 275 270 259 257 260 258 252 249 251 254 256 252 249 250 246 234 232 232 226 224 225 215 201 201 193 181 195 209
79 79 77 75 73 71 69 67 65 62 59 57 56 55 53 48 42 40 40 37 32 27 23 22 22 22 23 22 20 18 18 17 15 13 10 8 5 4 2 0 358 357 356 353 352 351 349 348 348 347 346 344 341 332 313 291 277 274 276 273 266 258 255 255 250 247 249 253 252 248 247 245 236 230 230 225 222 226 220 199 188 178 166 186 203
79 77 74 71 68 65 63 62 61 59 56 53 51 49 46 41 36 34 33 31 28 24 21 20 21 22 22 21 20 19 17 17 15 12 9 6 3 1 360 358 356 354 352 349 349 349 348 347 347 347 345 344 342 338 326 308 293 284 283 282 274 260 252 255 254 249 250 252 251 249 246 244 237 228 224 223 223 228 224 192 177 174 168 182 193
78 76 73 70 67 64 63 61 58 56 52 49 47 43 38 35 33 33 32 29 25 23 22 22 23 24 22 22 22 20 19 17 14 11 8 5 3 360 357 355 352 351 348 346 345 346 347 346 345 345 344 343 341 336 329 317 302 291 286 284 276 260 245 248 253 251 253 253 250 249 247 245 237 224 220 222 222 229 224 191 175 171 168 179 184
79 78 76 72 69 66 64 60 57 53 49 46 43 38 34 31 30 31 31 28 23 22 24 25 24 23 20 19 19 19 16 14 11 9 6 4 1 357 355 352 348 348 346 346 346 345 345 345 345 344 343 342 340 335 329 323 311 298 292 287 276 257 237 238 249 252 257 255 249 247 246 248 240 221 216 221 219 222 222 201 184 174 164 169 180
79 80 79 75 72 67 63 59 55 50 46 42 38 33 30 28 27 30 32 29 24 24 26 25 22 18 16 14 13 13 11 9 7 5 2 0 358 354 352 350 348 347 347 347 348 347 345 345 345 344 341 341 342 337 329 325 320 308 298 291 276 256 237 235 245 248 249 249 248 247 245 248 244 226 213 213 212 213 211 204 198 188 174 170 180
79 82 84 79 70 64 62 58 55 53 47 43 38 34 31 31 32 34 36 34 30 27 24 20 17 12 9 7 5 4 2 0 358 357 356 355 353 352 351 351 351 351 351 347 348 350 347 347 347 345 343 342 343 341 332 326 324 316 304 290 272 253 235 233 243 247 246 243 242 245 244 246 243 233 219 207 203 202 200 201 202 201 196 186 186
83 85 85 80 70 66 65 62 58 56 53 50 47 41 37 37 40 39 36 32 28 23 17 11 7 3 0 358 357 357 356 355 353 353 353 353 353 354 354 355 355 354 352 350 350 351 349 350 349 346 345 345 346 346 339 331 325 320 309 288 265 245 231 231 241 253 255 246 244 244 243 245 243 235 222 209 203 199 197 200 202 207 212 206 201
88 83 82 80 77 73 71 67 61 57 54 52 46 41 37 36 36 33 27 21 15 11 8 5 3 2 1 359 358 358 357 357 356 356 357 357 358 359 359 360 359 356 354 354 354 351 351 352 350 349 349 349 349 349 345 338 330 324 317 294 260 240 235 231 232 243 251 251 253 247 239 243 244 236 226 219 216 211 206 204 204 209 212 208 207
94 89 88 87 85 80 74 68 63 57 53 49 43 40 38 34 30 26 23 17 9 6 6 6 6 4 2 0 359 360 0 1 1 1 3 4 4 4 4 5 3 359 358 358 354 352 353 354 351 352 352 350 350 348 346 346 338 330 324 305 272 245 239 231 224 236 247 255 259 250 238 241 240 234 230 225 221 218 214 211 206 208 212 205 196
101 99 96 92 87 81 74 68 62 56 51 46 43 40 36 32 26 21 20 18 13 10 9 6 3 360 360 1 3 5 6 7 6 5 7 8 11 13 11 9 5 2 1 358 354 353 355 355 352 354 356 354 352 348 345 347 342 333 326 314 294 256 242 235 231 240 248 253 255 245 236 239 236 231 230 223 219 218 214 214 209 206 210 205 191
108 105 101 96 90 81 73 66 59 52 46 42 39 36 31 29 25 18 16 16 14 11 7 3 1 2 5 8 9 10 10 9 9 10 11 13 16 17 13 10 5 3 3 359 356 356 356 354 352 356 2 360 357 354 350 349 345 337 327 321 311 270 242 234 236 242 240 243 251 240 231 237 234 229 229 221 215 213 209 208 209 206 204 202 192
112 108 103 97 91 81 69 60 53 46 42 38 35 31 24 20 20 15 12 11 9 7 5 5 7 9 11 12 12 13 12 12 13 14 15 16 16 14 11 8 3 2 3 0 360 360 358 358 355 357 3 2 0 1 360 360 359 349 333 321 314 290 245 229 234 239 216 220 254 244 231 237 238 233 229 221 212 207 202 200 204 206 200 196 191
114 109 103 95 85 75 61 51 47 41 38 35 31 26 19 13 13 12 9 6 6 7 8 10 12 12 12 13 14 15 14 15 15 15 15 15 14 11 8 5 1 1 1 1 2 1 358 1 359 357 1 2 2 3 2 2 3 359 347 326 312 302 259 225 218 218 205 214 252 251 238 238 242 241 227 217 213 205 198 195 197 201 196 191 190
116 108 101 92 78 68 56 48 43 37 34 31 27 24 19 14 12 10 8 7 9 12 12 12 12 12 13 14 15 15 14 15 14 13 14 14 12 10 6 2 0 360 360 360 2 1 359 2 1 358 1 1 1 3 2 0 1 1 358 340 310 303 281 226 202 199 204 210 235 244 242 238 236 235 222 214 223 215 203 198 194 194 191 186 188
117 108 101 91 77 66 55 46 42 36 30 26 22 19 18 16 14 11 10 11 14 15 12 11 12 12 13 14 14 13 12 12 11 10 11 11 11 10 6 1 359 358 357 357 359 0 1 3 1 360 1 1 2 4 4 2 0 2 5 357 326 305 284 205 182 176 178 188 216 230 234 234 229 224 218 219 231 229 213 206 201 193 185 182 186
117 109 99 90 78 63 48 39 37 33 27 23 20 18 18 17 16 13 11 12 13 14 12 11 12 12 12 12 11 10 9 8 7 7 7 8 9 8 7 3 358 355 353 354 355 358 0 2 2 0 1 3 4 4 5 5 3 2 7 7 352 325 197 168 168 166 170 186 207 220 221 228 228 219 218 222 230 240 228 212 205 193 183 183 186
119 110 101 90 76 56 39 31 30 27 23 22 21 21 20 18 16 13 11 11 11 12 12 11 11 10 10 9 6 5 5 4 2 2 2 3 5 5 6 5 0 354 350 349 352 355 357 359 1 360 359 1 2 3 4 5 4 360 5 10 7 3 156 154 160 160 165 183 188 196 206 217 224 218 215 212 211 221 225 217 208 193 184 185 186
119 109 98 83 64 43 28 24 25 24 23 24 23 22 20 19 16 12 10 9 9 11 12 10 10 8 6 4 2 0 0 359 359 359 359 360 2 3 4 5 3 357 351 346 348 352 355 356 359 360 359 358 358 1 3 3 3 359 0 9 11 15 128 139 157 169 178 180 168 139 197 214 220 214 209 209 209 208 206 208 205 198 191 189 190
116 105 91 73 56 40 29 27 26 26 27 27 27 24 20 19 15 10 9 9 9 11 10 8 7 5 3 0 358 358 358 356 356 357 358 359 1 2 2 4 4 1 356 351 350 352 354 355 357 359 0 357 356 359 359 358 359 359 359 6 8 12 68 105 147 211 227 201 169 168 226 230 221 216 220 226 233 225 209 202 198 195 195 194 193
111 101 88 73 59 46 41 38 34 33 33 30 28 23 18 17 14 10 9 9 9 10 8 6 5 3 0 359 358 358 357 356 356 357 359 0 1 2 2 3 5 4 1 358 356 356 356 355 354 356 359 357 354 354 352 350 354 358 0 6 6 5 33 95 110 247 249 215 180 184 219 230 219 224 238 241 241 230 211 205 203 199 198 198 195
112 105 95 84 69 56 52 50 44 42 37 30 26 20 16 14 12 10 8 8 9 8 6 4 3 0 359 359 359 359 358 358 358 359 0 2 2 2 3 4 6 6 4 0 359 359 359 356 352 355 358 355 351 351 348 346 351 356 1 9 9 6 7 122 159 353 329 247 176 172 188 205 214 224 244 253 245 226 206 201 201 203 208 208 201
117 112 103 91 80 67 58 57 52 45 36 27 21 17 15 13 11 8 7 8 8 6 4 3 2 0 1 1 2 3 3 4 5 4 4 4 3 4 6 6 7 7 5 1 359 359 358 356 356 358 0 355 350 350 346 344 351 357 3 9 10 11 10 1 201 242 316 294 166 157 156 183 214 216 236 270 256 225 204 194 194 200 210 215 211
122 116 109 96 88 76 64 65 55 40 33 24 18 17 15 13 9 7 7 8 8 5 3 4 3 3 4 5 8 10 12 13 13 11 10 8 6 7 7 7 8 7 4 359 357 356 356 358 359 358 1 360 354 351 349 347 353 0 6 7 8 13 16 15 211 223 260 205 161 163 158 176 211 201 282 323 256 202 190 183 184 191 202 210 211
126 122 114 99 89 78 67 64 50 36 31 23 16 16 16 12 9 8 8 8 7 6 6 6 7 8 8 10 13 15 18 19 17 14 12 9 6 5 3 3 4 3 360 356 354 355 356 359 358 356 2 5 359 356 354 352 356 5 9 7 7 12 18 20 16 252 206 160 153 167 167 170 185 199 348 15 105 166 167 166 173 179 187 196 200
133 127 115 103 87 71 60 53 43 34 27 19 16 16 15 12 11 10 8 7 8 10 10 10 11 12 12 13 15 17 19 20 18 15 11 6 3 1 359 359 360 358 358 357 356 357 358 357 355 355 2 6 4 3 2 356 359 8 13 11 12 13 13 14 13 13 109 151 152 162 173 177 188 200 337 20 80 142 149 155 167 175 185 192 193
138 124 101 84 66 57 48 39 34 28 21 18 18 18 15 12 12 10 8 10 13 13 14 14 14 15 16 16 16 16 18 18 15 12 8 3 0 0 359 0 1 359 358 358 356 357 357 355 355 358 2 6 9 10 8 2 0 6 12 16 22 20 13 7 3 4 16 141 161 171 176 181 204 214 313 20 52 115 140 157 163 165 176 188 192
134 109 88 69 59 56 46 34 27 22 21 20 18 19 17 12 9 10 11 15 17 17 17 17 17 18 19 19 17 17 17 14 10 8 5 2 1 1 1 2 3 1 0 359 357 358 358 357 358 359 359 3 9 11 11 9 4 4 7 11 18 21 16 11 5 350 338 336 174 189 184 176 198 216 222 16 42 84 129 165 166 163 163 174 186
125 106 88 68 61 59 45 32 24 21 22 19 17 18 17 10 8 12 17 19 20 20 20 20 20 21 22 21 19 18 15 11 7 6 5 3 2 2 2 4 6 5 3 2 0 0 1 1 0 359 358 2 7 8 11 14 10 6 5 3 6 16 16 12 12 2 327 313 244 201 198 190 198 203 205 314 36 73 124 171 166 163 164 170 179
131 114 84 69 69 64 44 29 25 26 24 20 19 18 12 9 13 18 21 23 23 23 23 23 24 25 25 25 21 17 13 10 8 7 7 5 4 4 4 5 7 6 5 6 6 5 4 3 3 2 1 2 5 6 11 16 15 11 8 3 4 12 13 10 12 10 343 301 259 212 196 192 198 197 191 219 8 61 107 135 142 159 174 186 190
135 109 84 84 83 69 43 31 31 30 25 23 23 18 11 13 19 22 25 26 25 25 24 25 27 29 29 27 23 18 16 14 10 9 10 8 7 7 7 8 9 8 7 8 9 11 13 11 9 7 5 4 5 5 9 16 18 17 14 11 11 12 9 10 9 1 349 328 252 214 191 179 187 196 189 199 320 44 101 136 165 181 191 198 196
137 106 95 95 78 54 45 42 37 32 29 29 26 18 15 20 24 25 28 27 26 26 26 26 29 32 31 25 19 18 19 15 11 11 11 11 11 11 9 12 14 13 11 10 11 18 23 22 17 13 9 8 7 5 7 13 18 21 21 20 20 13 6 11 9 356 353 353 292 211 190 175 175 184 181 187 276 28 93 151 190 184 189 189 176
135 117 109 102 82 66 59 51 41 33 33 33 27 20 21 27 28 27 28 28 28 28 28 26 27 32 33 23 15 17 17 14 13 14 11 11 13 13 13 15 16 14 12 11 13 18 23 23 21 18 13 10 9 7 7 10 15 20 24 24 22 15 4 7 7 1 360 359 336 199 178 172 171 171 170 175 239 342 63 88 130 134 147 154 144
143 135 123 112 100 88 73 59 46 38 37 35 28 24 27 30 29 28 29 30 31 31 30 28 26 29 31 25 17 18 20 18 17 15 12 12 13 13 14 16 17 16 13 11 13 18 22 23 22 21 17 13 11 8 7 10 13 18 23 25 22 15 3 1 4 4 7 7 4 150 155 160 162 159 160 163 188 334 48 65 88 105 109 117 122
153 144 129 123 119 99 84 67 51 43 41 37 30 30 32 32 30 31 32 34 34 33 34 33 29 27 26 22 20 20 22 23 22 17 14 13 12 12 12 13 16 18 15 12 14 19 23 24 24 22 19 15 12 9 8 10 13 16 20 23 22 16 6 356 357 4 16 22 27 88 116 124 137 140 140 147 145 27 36 45 85 95 89 90 108
157 148 141 137 126 108 92 70 56 51 45 38 35 35 35 33 32 33 35 37 37 36 36 37 35 33 26 20 22 24 21 20 23 22 18 14 12 12 10 10 15 18 18 15 16 19 23 24 24 23 20 17 14 12 10 10 12 14 15 17 19 19 16 6 357 5 22 32 41 72 92 99 115 123 118 118 106 55 43 42 75 84 77 74 106
158 155 152 139 129 121 103 76 63 57 48 42 42 40 36 34 34 35 36 38 39 39 39 39 39 39 36 28 26 30 28 22 21 22 21 18 16 14 10 10 15 17 18 17 16 17 19 21 22 23 22 20 17 14 12 11 11 10 9 11 15 19 21 17 9 12 26 37 47 69 94 97 100 109 116 113 81 57 48 44 63 74 71 89 124
164 164 152 139 140 137 117 89 71 64 55 49 48 43 37 35 35 36 38 39 40 41 40 41 40 40 40 37 30 29 31 27 23 23 23 21 21 20 15 13 15 18 18 18 17 17 17 18 19 21 22 22 20 17 14 13 10 6 2 4 10 14 15 12 10 11 19 33 49 72 105 116 102 97 98 82 52 54 53 49 63 75 65 73 94
169 167 154 149 153 146 126 104 83 71 61 56 53 45 39 38 36 37 39 40 42 43 41 41 40 38 39 40 35 30 32 31 26 26 23 18 19 24 27 22 18 20 22 20 18 18 18 17 16 18 19 20 20 19 16 13 11 7 3 3 6 8 7 6 4 3 0 5 51 80 94 107 112 103 90 70 46 45 52 53 69 85 75 67 72
172 168 162 161 160 148 130 112 93 79 66 61 58 48 42 41 38 38 40 41 44 46 42 40 40 37 37 41 39 37 39 38 33 31 27 15 11 17 26 30 26 25 27 26 22 19 18 18 18 19 20 20 19 18 17 15 14 14 10 5 6 6 2 0 360 355 355 10 59 80 78 82 84 84 87 79 57 41 31 30 48 62 71 96 103
174 171 169 164 158 149 136 117 99 86 71 65 62 51 45 43 39 39 41 43 46 48 45 42 41 38 38 41 41 40 41 40 37 37 36 27 17 12 15 24 30 30 31 32 29 24 20 19 20 22 24 24 22 20 19 18 18 18 15 10 9 8 3 2 0 351 350 21 56 70 69 69 64 53 53 66 64 46 27 17 27 37 44 90 108